Weather History for Anaktuvuk Pass, AK

Change the Weather History Date:

Wednesday, January 23, 2013

  Actual Average Record
Temperature  
Mean Temperature -28 °F -  
Max Temperature -25 °F -2 °F 26 °F (2000)
Min Temperature -32 °F -14 °F -38 °F (2011)
Degree Days  
Heating Degree Days 94    
Moisture  
Dew Point -    
Average Humidity    
Maximum Humidity    
Minimum Humidity    
Precipitation  
Precipitation 0.00 in - - ()
Sea Level Pressure  
Sea Level Pressure 29.95 in    
Wind  
Wind Speed 8 mph (NNE)    
Max Wind Speed 17 mph    
Max Gust Speed 23 mph    
Visibility 4 miles    
Events      
Averages and records for this station are not official NWS values.
T = Trace of Precipitation, MM = Missing Value Source: NWS Daily Summary

Daily Weather History Graph

Daily Weather History Graph

Search for Another Location

Airport:

Trip Planner

Search our weather history database for the weather conditions in past years. The results will help you decide how hot, cold, wet, or windy it might be!

Date:

Astronomy

Jan. 23, 2013 Rise Set
Actual Time 11:02 AM AKST 3:35 PM AKST
Civil Twilight 9:38 AM AKST 4:59 PM AKST
Nautical Twilight 8:24 AM AKST 6:14 PM AKST
Astronomical Twilight 7:17 AM AKST 7:21 PM AKST
Moon 12:05 PM AKST (1/23) 9:13 AM AKST (1/23)
Length of Visible Light 7h 20m
Length of Day
4h 32m
Waxing Gibbous, 90% of the Moon is Illuminated
Jan 23
Waxing Gibbous
Jan 26
Full
Feb 3
Last Quarter
Feb 9
New
Feb 17
First Quarter

Hourly Weather History & Observations

Time (AKST) Temp. Windchill Dew Point Humidity Pressure Visibility Wind Dir Wind Speed Gust Speed Precip Events Conditions
12:16 AM -27.4 °F -41.9 °F - N/A% 29.94 in 10.0 mi North 4.6 mph - N/A   Partly Cloudy
12:36 AM -27.4 °F -41.9 °F - N/A% 29.95 in 10.0 mi North 4.6 mph - N/A   Partly Cloudy
12:56 AM -27.4 °F -44.1 °F - N/A% 29.95 in 10.0 mi North 5.8 mph - N/A   Scattered Clouds
1:16 AM -27.4 °F -44.1 °F - N/A% 29.95 in 10.0 mi North 5.8 mph - N/A   Scattered Clouds
1:36 AM -27.4 °F -44.1 °F - N/A% 29.95 in 10.0 mi North 5.8 mph - N/A   Partly Cloudy
1:56 AM -27.4 °F -44.1 °F - N/A% 29.95 in 10.0 mi North 5.8 mph - N/A   Scattered Clouds
2:16 AM -27.4 °F -44.1 °F - N/A% 29.95 in 10.0 mi North 5.8 mph - N/A   Mostly Cloudy
2:36 AM -27.4 °F -44.1 °F - N/A% 29.94 in 4.0 mi North 5.8 mph - N/A   Overcast
2:56 AM -27.4 °F -44.1 °F - N/A% 29.95 in 7.0 mi North 5.8 mph - N/A   Overcast
3:16 AM -27.4 °F -44.1 °F - N/A% 29.95 in 10.0 mi NNW 5.8 mph - N/A   Scattered Clouds
3:36 AM -27.4 °F -45.9 °F - N/A% 29.94 in 10.0 mi North 6.9 mph - N/A   Scattered Clouds
3:56 AM -27.4 °F -44.1 °F - N/A% 29.94 in 10.0 mi North 5.8 mph - N/A   Overcast
4:16 AM -27.4 °F -44.1 °F - N/A% 29.94 in 6.0 mi NNW 5.8 mph - N/A   Overcast
4:36 AM -25.6 °F -41.9 °F - N/A% 29.93 in 7.0 mi North 5.8 mph - N/A   Mostly Cloudy
4:56 AM -27.4 °F -44.1 °F - N/A% 29.94 in 5.0 mi North 5.8 mph - N/A   Mostly Cloudy
5:16 AM -27.4 °F -41.9 °F - N/A% 29.94 in 5.0 mi North 4.6 mph - N/A   Overcast
5:36 AM -27.4 °F -44.1 °F - N/A% 29.94 in 6.0 mi North 5.8 mph - N/A   Scattered Clouds
5:56 AM -27.4 °F -45.9 °F - N/A% 29.94 in 5.0 mi North 6.9 mph - N/A   Clear
6:16 AM -27.4 °F -44.1 °F - N/A% 29.94 in 10.0 mi North 5.8 mph - N/A   Clear
6:36 AM -27.4 °F -47.6 °F - N/A% 29.94 in 7.0 mi NNE 8.1 mph - N/A   Clear
6:56 AM -27.4 °F -45.9 °F - N/A% 29.94 in 8.0 mi NNE 6.9 mph - N/A   Clear
7:16 AM -27.4 °F -47.6 °F - N/A% 29.93 in 4.0 mi North 8.1 mph - N/A   Clear
7:36 AM -27.4 °F -45.9 °F - N/A% 29.93 in 5.0 mi NNE 6.9 mph - N/A   Clear
7:56 AM -29.2 °F -46.2 °F - N/A% 29.93 in 5.0 mi North 5.8 mph - N/A   Clear
8:16 AM -31.0 °F -51.9 °F - N/A% 29.93 in 6.0 mi North 8.1 mph - N/A   Clear
8:36 AM -32.8 °F -54.1 °F - N/A% 29.93 in 7.0 mi North 8.1 mph - N/A   Clear
8:56 AM -32.8 °F -52.4 °F - N/A% 29.93 in 3.0 mi NNE 6.9 mph - N/A   Partly Cloudy
9:16 AM -32.8 °F -52.4 °F - N/A% 29.93 in 3.0 mi North 6.9 mph - N/A   Partly Cloudy
9:36 AM -31.0 °F -48.4 °F - N/A% 29.93 in 3.0 mi North 5.8 mph - N/A   Clear
9:56 AM -31.0 °F -54.7 °F - N/A% 29.93 in 3.0 mi North 10.4 mph - N/A   Clear
10:16 AM -31.0 °F -54.7 °F - N/A% 29.93 in 2.5 mi North 10.4 mph 16.1 mph N/A   Partly Cloudy
10:36 AM -31.0 °F -57.1 °F - N/A% 29.94 in 1.5 mi NNE 12.7 mph - N/A   Mostly Cloudy
10:56 AM -32.8 °F -60.4 °F - N/A% 29.93 in 1.2 mi North 13.8 mph - N/A   Mostly Cloudy
11:16 AM -32.8 °F -54.1 °F - N/A% 29.93 in 1.0 mi North 8.1 mph - N/A   Overcast
11:36 AM -32.8 °F -58.2 °F - N/A% 29.93 in 0.8 mi North 11.5 mph - N/A   Overcast
11:56 AM -29.2 °F -58.5 °F - N/A% 29.92 in 1.5 mi NNE 17.3 mph 21.9 mph N/A   Mostly Cloudy
12:16 PM -29.2 °F -58.5 °F - N/A% 29.92 in 0.8 mi NE 17.3 mph 23.0 mph N/A   Overcast
12:36 PM -29.2 °F -57.6 °F - N/A% 29.92 in 1.0 mi NE 16.1 mph - N/A   Overcast
12:56 PM -27.4 °F -54.5 °F - N/A% 29.93 in 1.0 mi NE 15.0 mph - N/A   Overcast
1:16 PM -31.0 °F -53.4 °F - N/A% 29.93 in 0.8 mi NNE 9.2 mph - N/A   Overcast
1:36 PM -29.2 °F -53.7 °F - N/A% 29.92 in 0.8 mi NNE 11.5 mph 17.3 mph N/A   Overcast
1:56 PM -29.2 °F -55.8 °F - N/A% 29.92 in 0.8 mi NNE 13.8 mph 17.3 mph N/A   Overcast
2:16 PM -29.2 °F -55.8 °F - N/A% 29.93 in 0.8 mi NE 13.8 mph 19.6 mph N/A   Overcast
2:36 PM -29.2 °F -55.8 °F - N/A% 29.93 in 0.8 mi NNE 13.8 mph - N/A   Overcast
2:56 PM -29.2 °F -58.5 °F - N/A% 29.93 in 0.8 mi NNE 17.3 mph - N/A   Overcast
3:16 PM -29.2 °F -55.8 °F - N/A% 29.93 in 0.8 mi NE 13.8 mph 21.9 mph N/A   Overcast
3:36 PM -29.2 °F -55.8 °F - N/A% 29.93 in 0.5 mi NE 13.8 mph 18.4 mph N/A   Overcast
3:56 PM -29.2 °F -53.7 °F - N/A% 29.93 in 0.5 mi NNE 11.5 mph - N/A   Overcast
4:16 PM -29.2 °F -56.8 °F - N/A% 29.93 in 0.8 mi NE 15.0 mph - N/A   Overcast
4:36 PM -29.2 °F -56.8 °F - N/A% 29.94 in 0.8 mi NE 15.0 mph 19.6 mph N/A   Overcast
4:56 PM -29.2 °F -52.5 °F - N/A% 29.94 in 1.0 mi NE 10.4 mph - N/A   Overcast
5:16 PM -29.2 °F -51.2 °F - N/A% 29.95 in 1.2 mi NE 9.2 mph - N/A   Overcast
5:36 PM -29.2 °F -54.8 °F - N/A% 29.95 in 1.5 mi NNE 12.7 mph 19.6 mph N/A   Overcast
5:56 PM -29.2 °F -54.8 °F - N/A% 29.95 in 1.5 mi NE 12.7 mph - N/A   Overcast
6:16 PM -29.2 °F -56.8 °F - N/A% 29.95 in 1.5 mi NE 15.0 mph 19.6 mph N/A   Overcast
6:36 PM -29.2 °F -56.8 °F - N/A% 29.95 in 1.5 mi NE 15.0 mph 19.6 mph N/A   Overcast
6:56 PM -29.2 °F -57.6 °F - N/A% 29.95 in 1.5 mi NE 16.1 mph - N/A   Overcast
7:16 PM -29.2 °F -56.8 °F - N/A% 29.95 in 1.8 mi NNE 15.0 mph - N/A   Overcast
7:36 PM -29.2 °F -54.8 °F - N/A% 29.96 in 1.5 mi NNE 12.7 mph - N/A   Overcast
7:56 PM -29.2 °F -54.8 °F - N/A% 29.96 in 1.5 mi NE 12.7 mph - N/A   Overcast
8:16 PM -29.2 °F -54.8 °F - N/A% 29.97 in 1.8 mi NNE 12.7 mph 19.6 mph N/A   Overcast
8:36 PM -29.2 °F -53.7 °F - N/A% 29.98 in 2.0 mi NNE 11.5 mph 16.1 mph N/A   Overcast
8:56 PM -29.2 °F -52.5 °F - N/A% 29.98 in 1.8 mi NNE 10.4 mph - N/A   Overcast
9:16 PM -29.2 °F -54.8 °F - N/A% 29.98 in 2.0 mi NE 12.7 mph - N/A   Overcast
9:36 PM -29.2 °F -52.5 °F - N/A% 29.98 in 2.0 mi NE 10.4 mph - N/A   Overcast
9:56 PM -29.2 °F -54.8 °F - N/A% 29.98 in 1.8 mi NE 12.7 mph - N/A   Overcast
10:16 PM -29.2 °F -53.7 °F - N/A% 29.99 in 1.8 mi NE 11.5 mph - N/A   Overcast
10:36 PM -29.2 °F -55.8 °F - N/A% 29.99 in 1.8 mi NE 13.8 mph - N/A   Overcast
10:56 PM -29.2 °F -52.5 °F - N/A% 30.00 in 1.5 mi NE 10.4 mph 18.4 mph N/A   Overcast
11:16 PM -29.2 °F -51.2 °F - N/A% 30.00 in 1.8 mi NE 9.2 mph - N/A   Overcast
11:36 PM -29.2 °F -53.7 °F - N/A% 30.00 in 2.0 mi NE 11.5 mph 16.1 mph N/A   Overcast
11:56 PM -29.2 °F -52.5 °F - N/A% 30.01 in 1.8 mi NE 10.4 mph - N/A   Overcast